Date String (YYYY-MM-DD hh:mm:ss) UTC,Instrument flags,Ambient pressure (hPa),Sample flow (lpm),Bypass flow (lpm),Sample temperature (°C),Ambient temperature (°C),ASC tube jacket temperature (°C),LED temperature (°C),Box temperature (°C),Sample RH (%),Span deviation,Mass concentration (μg/m³),Mass concentration (μg/m³),Mass concentration (μg/m³)
DateTimeUTC,F1_M11,P_M11,Q1_M11,Q2_M11,T1_M11,T2_M11,T3_M11,T4_M11,T5_M11,U1_M11,ZSPAN_M11,X2_M11,X0_M11,X1_M11
2021-12-01 16:00:00,,0829.0,5.02,0.00,26.5,25.6,00.0,35.4,28.3,10.7,0000.0,0001.93,0008.58,0000.94
2021-12-01 16:01:00,,0829.1,4.99,0.00,26.5,25.6,00.0,35.4,28.3,11.1,0000.0,0001.89,0007.98,0000.93
2021-12-01 16:02:00,,0829.0,5.01,0.00,26.5,25.6,00.0,35.4,28.3,11.0,0000.0,0001.98,0008.18,0000.99
2021-12-01 16:03:00,,0829.0,4.99,0.00,26.5,25.6,00.0,35.4,28.3,10.8,0000.0,0001.99,0008.17,0001.01
2021-12-01 16:04:00,,0829.1,5.00,0.00,26.5,25.6,00.0,35.4,28.3,10.9,0000.0,0001.98,0008.07,0001.00
2021-12-01 16:05:00,,0829.1,5.01,0.00,26.5,25.6,00.0,35.4,28.3,10.9,0000.0,0001.98,0005.64,0001.00
2021-12-01 16:06:00,,0829.0,4.99,0.00,26.5,25.7,00.0,35.4,28.3,10.9,0000.0,0001.97,0005.39,0001.00
2021-12-01 16:07:00,,0829.0,5.02,0.00,26.5,25.7,00.0,35.4,28.3,11.0,0000.0,0001.96,0005.49,0000.98
2021-12-01 16:08:00,,0829.0,4.99,0.00,26.5,25.7,00.0,35.4,28.3,11.0,0000.0,0001.93,0005.30,0000.96
2021-12-01 16:09:00,,0829.0,5.00,0.00,26.5,25.7,00.0,35.4,28.3,11.2,0000.0,0001.92,0005.61,0000.96
2021-12-01 16:10:00,,0829.0,5.00,0.00,26.5,25.7,00.0,35.4,28.3,11.2,0000.0,0001.92,0005.69,0000.96
2021-12-01 16:11:00,,0829.0,4.99,0.00,26.5,25.7,00.0,35.4,28.3,11.2,0000.0,0001.88,0005.56,0000.95
2021-12-01 16:12:00,,0829.0,5.01,0.00,26.5,25.7,00.0,35.4,28.3,11.2,0000.0,0001.80,0005.50,0000.89
2021-12-01 16:13:00,,0829.0,5.01,0.00,26.5,25.7,00.0,35.4,28.3,11.2,0000.0,0001.64,0005.05,0000.78
2021-12-01 16:14:00,,0829.1,5.00,0.00,26.5,25.7,00.0,35.4,28.3,11.2,0000.0,0001.57,0004.86,0000.74
2021-12-01 16:15:00,,0829.0,5.01,0.00,26.5,25.7,00.0,35.4,28.4,11.1,0000.0,0001.51,0004.17,0000.71
2021-12-01 16:16:00,,0829.0,5.00,0.00,26.5,25.7,00.0,35.4,28.4,11.1,0000.0,0001.46,0004.00,0000.69
2021-12-01 16:17:00,,0829.1,5.00,0.00,26.5,25.7,00.0,35.4,28.4,11.2,0000.0,0001.44,0003.91,0000.66
2021-12-01 16:18:00,,0829.1,5.01,0.00,26.5,25.7,00.0,35.4,28.3,11.2,0000.0,0001.40,0003.61,0000.66
2021-12-01 16:19:00,,0829.1,4.99,0.00,26.5,25.7,00.0,35.5,28.4,11.1,0000.0,0001.36,0003.40,0000.66
2021-12-01 16:20:00,,0829.1,5.00,0.00,26.6,25.7,00.0,35.5,28.4,11.2,0000.0,0001.33,0003.91,0000.64
2021-12-01 16:21:00,,0829.1,4.99,0.00,26.6,25.7,00.0,35.5,28.3,11.3,0000.0,0001.38,0004.19,0000.63
2021-12-01 16:22:00,,0829.1,5.00,0.00,26.6,25.8,00.0,35.5,28.4,11.6,0000.0,0001.47,0004.59,0000.63
2021-12-01 16:23:00,,0829.1,5.00,0.00,26.6,25.8,00.0,35.5,28.4,11.5,0000.0,0001.52,0004.86,0000.66
2021-12-01 16:24:00,,0829.0,5.00,0.00,26.6,25.8,00.0,35.5,28.4,11.3,0000.0,0001.56,0006.71,0000.69
2021-12-01 16:25:00,,0829.0,5.00,0.00,26.6,25.8,00.0,35.5,28.4,11.4,0000.0,0001.54,0007.25,0000.71
2021-12-01 16:26:00,,0829.1,4.99,0.00,26.6,25.8,00.0,35.5,28.4,11.4,0000.0,0001.54,0007.36,0000.71
2021-12-01 16:27:00,,0829.0,5.01,0.00,26.6,25.9,00.0,35.5,28.5,11.5,0000.0,0001.52,0007.28,0000.71
2021-12-01 16:28:00,,0829.0,4.98,0.00,26.7,25.9,00.0,35.5,28.4,11.5,0000.0,0001.53,0007.26,0000.72
2021-12-01 16:29:00,,0829.1,5.01,0.00,26.7,25.9,00.0,35.5,28.5,11.6,0000.0,0001.54,0007.32,0000.71
2021-12-01 16:30:00,,0829.1,5.01,0.00,26.7,25.9,00.0,35.5,28.5,11.6,0000.0,0001.55,0007.40,0000.71
2021-12-01 16:31:00,,0829.0,5.00,0.00,26.7,25.9,00.0,35.6,28.5,11.6,0000.0,0001.58,0006.98,0000.72
2021-12-01 16:32:00,,0829.1,5.01,0.00,26.7,26.0,00.0,35.6,28.5,11.6,0000.0,0001.54,0006.84,0000.72
2021-12-01 16:33:00,,0829.1,4.99,0.00,26.7,26.0,00.0,35.6,28.6,11.6,0000.0,0001.49,0007.11,0000.72
2021-12-01 16:34:00,,0829.1,5.01,0.00,26.8,26.0,00.0,35.6,28.6,11.6,0000.0,0001.47,0007.09,0000.70
2021-12-01 16:35:00,,0829.1,5.00,0.00,26.8,26.1,00.0,35.6,28.6,11.6,0000.0,0001.39,0005.29,0000.67
2021-12-01 16:36:00,,0829.1,5.00,0.00,26.8,26.1,00.0,35.6,28.6,11.7,0000.0,0001.40,0004.62,0000.64
2021-12-01 16:37:00,,0829.2,5.01,0.00,26.8,26.1,00.0,35.7,28.7,11.9,0000.0,0001.44,0004.81,0000.65
2021-12-01 16:38:00,,0829.3,4.98,0.00,26.9,26.1,00.0,35.7,28.7,12.7,0000.0,0001.88,0006.19,0000.80
2021-12-01 16:39:00,,0829.3,5.01,0.00,26.9,26.2,00.0,35.7,28.7,12.5,0000.0,0002.10,0008.22,0000.93
2021-12-01 16:40:00,,0829.3,5.01,0.00,26.9,26.2,00.0,35.7,28.7,11.9,0000.0,0002.23,0010.84,0001.00
2021-12-01 16:41:00,,0829.2,5.00,0.00,26.9,26.2,00.0,35.7,28.7,11.8,0000.0,0002.27,0011.22,0001.02
2021-12-01 16:42:00,,0829.2,4.99,0.00,26.9,26.2,00.0,35.8,28.8,11.7,0000.0,0002.27,0011.23,0001.02
2021-12-01 16:43:00,,0829.3,5.01,0.00,26.9,26.3,00.0,35.8,28.8,12.1,0000.0,0002.37,0011.56,0001.04
2021-12-01 16:44:00,,0829.2,5.00,0.00,27.0,26.3,00.0,35.8,28.8,12.3,0000.0,0002.58,0012.44,0001.08
2021-12-01 16:45:00,,0829.1,5.01,0.00,27.0,26.3,00.0,35.8,28.8,12.6,0000.0,0002.86,0013.41,0001.21
2021-12-01 16:46:00,,0829.1,4.99,0.00,27.0,26.3,00.0,35.8,28.9,12.2,0000.0,0003.06,0013.84,0001.30
2021-12-01 16:47:00,,0829.1,5.02,0.00,27.0,26.3,00.0,35.9,28.9,12.1,0000.0,0003.14,0013.97,0001.37
2021-12-01 16:48:00,,0829.2,5.00,0.00,27.1,26.4,00.0,35.9,28.9,11.9,0000.0,0003.15,0014.54,0001.40
2021-12-01 16:49:00,,0829.3,5.01,0.00,27.1,26.4,00.0,35.9,28.9,12.1,0000.0,0002.88,0014.30,0001.31
2021-12-01 16:50:00,,0829.3,5.00,0.00,27.1,26.4,00.0,35.9,28.9,12.4,0000.0,0002.78,0014.46,0001.24
2021-12-01 16:51:00,,0829.2,5.00,0.00,27.1,26.4,00.0,36.0,29.0,12.8,0000.0,0003.01,0013.45,0001.31
2021-12-01 16:52:00,,0829.3,5.01,0.00,27.1,26.5,00.0,36.0,29.0,12.7,0000.0,0003.20,0013.63,0001.42
2021-12-01 16:53:00,,0829.2,5.01,0.00,27.2,26.5,00.0,36.0,29.0,12.5,0000.0,0003.35,0014.15,0001.52
2021-12-01 16:54:00,,0829.3,4.99,0.00,27.2,26.5,00.0,36.0,29.0,12.5,0000.0,0003.49,0014.55,0001.61
2021-12-01 16:55:00,,0829.3,5.00,0.00,27.2,26.5,00.0,36.0,29.0,12.6,0000.0,0003.53,0014.05,0001.71
2021-12-01 16:56:00,,0829.2,5.00,0.00,27.2,26.5,00.0,36.1,29.1,12.5,0000.0,0003.59,0013.70,0001.72
2021-12-01 16:57:00,,0829.2,5.01,0.00,27.3,26.5,00.0,36.1,29.1,12.3,0000.0,0003.66,0015.89,0001.73
2021-12-01 16:58:00,,0829.2,4.98,0.00,27.3,26.6,00.0,36.1,29.1,12.1,0000.0,0003.73,0017.29,0001.74
2021-12-01 16:59:00,,0829.2,5.01,0.00,27.3,26.6,00.0,36.1,29.1,12.0,0000.0,0003.79,0017.09,0001.76
